FW8363 Weather Reports


time (UTC)temp
C
wind
direction
speed
KPH
gust
KPH
rain 1hr
cm
rain 24hr
cm
rain mn
cm
humidity
%
barometer
mb
20260507161044 -42 344 0.0 11.3 0.00 0.00 0.00 1018.5
20260507155029 -43 122 4.8 12.9 0.00 0.00 0.00 1018.5
20260507154157 -43 138 4.8 12.9 0.00 0.00 0.00 1018.6
20260507152547 -43 82 6.4 11.3 0.00 0.00 0.00 1018.6
20260507151012 -42 234 0.0 11.3 0.00 0.00 0.00 1018.7
20260507145114 -42 134 3.2 11.3 0.00 0.00 0.00 1018.7
20260507143508 -43 134 4.8 12.9 0.00 0.00 0.00 1018.6
20260507142652 -43 153 6.4 11.3 0.00 0.00 0.00 1018.6
20260507141044 -43 142 3.2 9.7 0.00 0.00 0.00 1018.6
20260507135032 -43 136 4.8 14.5 0.00 0.00 0.00 1018.5
20260507132621 -42 128 1.6 9.7 0.00 0.00 0.00 1018.3
20260507131010 -42 157 4.8 11.3 0.00 0.00 0.00 1018.2
20260507125029 -42 124 3.2 11.3 0.00 0.00 0.00 1018.0
20260507122607 -42 138 6.4 12.9 0.00 0.00 0.00 1018.1
20260507115113 -43 130 3.2 9.7 0.00 0.00 0.00 1017.5
20260507113507 -43 130 1.6 11.3 0.00 0.00 0.00 1017.4
20260507112651 -43 130 0.0 8.0 0.00 0.00 0.00 1017.4
20260507111043 -43 192 1.6 8.0 0.00 0.00 0.00 1017.3
20260507104200 -43 156 8.0 16.1 0.00 0.00 0.00 1016.7
20260507102629 -43 138 4.8 14.5 0.00 0.00 0.00 1016.7
20260507101021 -43 149 4.8 12.9 0.00 0.00 0.00 1016.6
20260507095651 -43 114 4.8 11.3 0.00 0.00 0.00 1016.6
20260507094043 -42 117 8.0 12.9 0.00 0.00 0.00 1016.5
20260507091646 -42 122 4.8 12.9 0.00 0.00 0.00 1016.4
20260507084137 -43 134 6.4 17.7 0.00 0.00 0.00 1016.3
20260507082544 -43 128 6.4 14.5 0.00 0.00 0.00 1016.3
20260507075124 -42 124 9.7 17.7 0.00 0.00 0.00 1016.5
20260507072630 -43 141 9.7 17.7 0.00 0.00 0.00 1016.6
20260507071021 -43 117 9.7 16.1 0.00 0.00 0.00 1016.8
20260507064605 -43 115 11.3 20.9 0.00 0.00 0.00 1017.0
20260507063043 -42 134 11.3 16.1 0.00 0.00 0.00 1017.4
20260507060634 -43 122 9.7 17.7 0.00 0.00 0.00 1017.3
20260507055028 -43 98 8.0 19.3 0.00 0.00 0.00 1017.3
20260507052629 -43 119 11.3 17.7 0.00 0.00 0.00 1017.4
20260507051005 -42 117 9.7 17.7 0.00 0.00 0.00 1017.6
20260507045009 -43 125 9.7 14.5 0.00 0.00 0.00 1017.7
20260507044158 -43 120 8.0 16.1 0.00 0.00 0.00 1017.9
20260507042609 -43 134 8.0 16.1 0.00 0.00 0.00 1018.0
20260507035006 -42 100 12.9 19.3 0.00 0.00 0.00 1018.0
20260507034157 -42 122 9.7 17.7 0.00 0.00 0.00 1018.0
20260507032543 -43 121 11.3 17.7 0.00 0.00 0.00 1018.1
20260507025028 -42 107 11.3 16.1 0.00 0.00 0.00 1017.9
20260507022606 -43 111 11.3 17.7 0.00 0.00 0.00 1017.8
20260507021024 -43 101 8.0 16.1 0.00 0.00 0.00 1017.7
20260507015012 -43 90 8.0 16.1 0.00 0.00 0.00 1017.6
20260507012628 -43 74 6.4 14.5 0.00 0.00 0.00 1017.6
20260507011021 -43 60 8.0 14.5 0.00 0.00 0.00 1017.7
20260507005027 -43 90 4.8 8.0 0.00 0.00 0.00 1017.8
20260507002605 -42 95 3.2 9.7 0.00 0.00 0.00 1017.6
20260506235035 -43 130 6.4 11.3 0.00 0.00 0.00 1017.4
20260506232649 -42 147 8.0 12.9 0.00 0.00 0.00 1017.3
20260506231043 -43 94 8.0 12.9 0.00 0.00 0.00 1017.3
20260506225050 -43 135 4.8 12.9 0.00 0.00 0.00 1017.3
20260506222650 -42 130 6.4 11.3 0.00 0.00 0.00 1017.0
20260506221042 -43 74 6.4 9.7 0.00 0.00 0.00 1017.0
20260506214143 -43 107 8.0 14.5 0.00 0.00 0.00 1017.0
20260506212542 -42 128 9.7 14.5 0.00 0.00 0.00 1017.0
20260506210048 -43 105 6.4 12.9 0.00 0.00 0.00 1016.9
20260506204158 -42 157 8.0 17.7 0.00 0.00 0.00 1017.1
20260506202542 -43 130 9.7 17.7 0.00 0.00 0.00 1017.2
20260506195053 -42 178 8.0 14.5 0.00 0.00 0.00 1017.4
20260506192628 -42 157 6.4 14.5 0.00 0.00 0.00 1017.5
20260506191020 -42 157 9.7 16.1 0.00 0.00 0.00 1017.7
20260506185028 -42 155 6.4 17.7 0.00 0.00 0.00 1017.9
20260506182615 -42 180 4.8 11.3 0.00 0.00 0.00 1018.2
20260506181019 -42 131 4.8 14.5 0.00 0.00 0.00 1018.4
20260506175010 -42 117 6.4 12.9 0.00 0.00 0.00 1018.5
20260506174158 -42 122 8.0 14.5 0.00 0.00 0.00 1018.6
20260506172541 -42 121 11.3 17.7 0.00 0.00 0.00 1018.7
20260506165135 -42 94 6.4 14.5 0.00 0.00 0.00 1018.8
20260506163534 -42 118 8.0 14.5 0.00 0.00 0.00 1018.9